Meteo Giornale » Osservazioni meteo Stati Uniti (USA) » Winchester Reg

ore: 17:35 - Osservazioni Meteo Winchester Reg
Lat. 39° 9' N Lon. 78° 9' W Alt. 222 metri s.l.m.

nuvoloso

26 °C

Nuvoloso

Temp. 24 Ore

19 °C

26 °C

Nord

0 Km/h

Dew point 22 °C

Umidità 78 %

Visibilità  10 Km

Il sole sorge alle ore 06:40

Il sole tramonta alle ore 19:45

Data e Ora Cielo e Fenomeni T °C DP °C Um. % Pres. hPa Vis. km Vento km/h
Oggi h: 17:35 nuvoloso Nuvoloso 26 22 78 1019 10 N 0
Oggi h: 17:15 nuvoloso Nuvoloso 26 22 78 1019 10 N 0
Oggi h: 16:55 molto_nuvoloso Molto Nuvoloso 26 21 73 1019 10 N 0
Oggi h: 16:35 molto_nuvoloso Molto Nuvoloso 26 21 73 1019 10 N 0
Oggi h: 16:15 nuvoloso Nuvoloso 26 21 73 1019 10 N 0
Oggi h: 15:55 molto_nuvoloso Molto Nuvoloso 26 21 73 1019 10 N 0
Oggi h: 15:35 molto_nuvoloso Molto Nuvoloso 26 21 73 1019 10 N 0
Oggi h: 15:15 molto_nuvoloso Molto Nuvoloso 26 21 73 1019 11 N 0
Oggi h: 14:55 nuvoloso Nuvoloso 26 21 73 1020 10 N 0
Oggi h: 14:35 nuvoloso Nuvoloso 26 21 73 1020 10 N 0
Oggi h: 14:15 sereno Sereno 26 21 73 1020 10 N 5.5
Oggi h: 13:55 sereno Sereno 26 21 73 1020 10 N 5.5
Oggi h: 13:35 nuvoloso Nuvoloso 26 21 73 1020 10 N 5.5
Oggi h: 13:15 molto_nuvoloso Molto Nuvoloso 26 20 69 1020 10 N 0
Oggi h: 12:55 sereno Sereno 26 20 69 1020 10 N 0
Oggi h: 12:35 nuvoloso Nuvoloso 26 20 69 1020 10 S/SE 7.4
Oggi h: 12:15 nuvoloso Nuvoloso 25 20 73 1020 10 N 5.5
Oggi h: 11:55 nuvoloso Nuvoloso 25 20 73 1020 10 N 0
Oggi h: 11:35 nuvoloso Nuvoloso 25 20 73 1020 10 N 0
Oggi h: 11:15 sereno Sereno 25 20 73 1021 10 N 0
Oggi h: 10:55 sereno Sereno 24 20 78 1021 10 N 5.5
Oggi h: 10:35 nuvoloso Nuvoloso 24 21 83 1020 10 N 0
Oggi h: 10:15 molto_nuvoloso Molto Nuvoloso 23 20 83 1020 10 N 0
Oggi h: 09:55 nuvoloso Nuvoloso 23 20 83 1021 10 N 0
Oggi h: 09:35 molto_nuvoloso Molto Nuvoloso 23 20 83 1021 10 N 0
Oggi h: 09:15 coperto Coperto 22 20 88 1021 10 N 0
Oggi h: 08:55 coperto Coperto 22 20 88 1021 10 N 0
Oggi h: 08:35 molto_nuvoloso Molto Nuvoloso 21 20 94 1020 10 N 0
Oggi h: 08:15 molto_nuvoloso Molto Nuvoloso 20 20 100 1020 10 N 0
Oggi h: 07:55 foschia Foschia 20 19 93 1020 8 N 0
Oggi h: 07:35 foschia Foschia 19 18 93 1020 8 N 5.5
Oggi h: 07:15 sereno Sereno 20 19 93 1020 10 N 0
Oggi h: 06:55 sereno Sereno 20 19 93 1020 10 N 0
Oggi h: 06:35 sereno Sereno 20 18 88 1020 10 N 0
Oggi h: 06:15 sereno Sereno 19 18 93 1019 11 N 0
Oggi h: 05:55 foschia Foschia 19 18 93 1019 8 N 0
Oggi h: 05:35 sereno Sereno 19 18 93 1019 11 N 0
Oggi h: 05:15 sereno Sereno 20 19 93 1019 10 N 0
Oggi h: 04:55 sereno Sereno 20 19 93 1019 10 O/NO 7.4
Oggi h: 04:35 sereno Sereno 19 18 93 1019 11 N 5.5
Oggi h: 04:15 foschia Foschia 19 18 93 1019 6 N 0
Oggi h: 03:55 foschia Foschia 19 19 100 1019 8 N 0
Oggi h: 03:35 sereno Sereno 19 18 93 1019 11 N 0
Oggi h: 03:15 foschia Foschia 19 18 93 1019 2 N 0
Oggi h: 02:55 foschia Foschia 19 18 93 1019 6 N 0
Oggi h: 02:35 foschia Foschia 19 18 93 1019 2 N 0
Oggi h: 02:15 foschia Foschia 19 18 93 1019 5 N 0
Oggi h: 01:55 foschia Foschia 19 18 93 1019 3 N 0
Oggi h: 01:35 nuvoloso Nuvoloso 20 19 93 1019 10 N 0
Oggi h: 01:15 foschia Foschia 20 19 93 1019 8 N 0
Oggi h: 00:55 nuvoloso Nuvoloso 20 19 93 1019 11 N 0
Oggi h: 00:35 molto_nuvoloso Molto Nuvoloso 20 19 93 1019 10 N 0
Oggi h: 00:15 sereno Sereno 20 20 100 1019 10 N 0
Ieri h: 23:55 sereno Sereno 20 20 100 1019 10 N 0
Ieri h: 23:35 sereno Sereno 21 20 94 1019 10 N 0
Ieri h: 23:15 sereno Sereno 21 20 94 1019 10 N 0
Ieri h: 22:55 sereno Sereno 21 20 94 1019 10 N 0
Ieri h: 22:35 sereno Sereno 21 20 94 1019 10 N 0
Ieri h: 22:15 nuvoloso Nuvoloso 20 20 100 1020 10 N 0
Ieri h: 21:55 molto_nuvoloso Molto Nuvoloso 21 20 94 1020 11 N 0
Ieri h: 21:35 sereno Sereno 20 20 100 1020 11 N 0
Ieri h: 21:15 sereno Sereno 21 20 94 1020 11 N 0
Ieri h: 20:55 foschia Foschia 20 20 100 1019 8 N 0
Ieri h: 20:35 sereno Sereno 21 20 94 1019 10 N 0
Ieri h: 20:15 sereno Sereno 21 21 100 1019 10 N 0
Ieri h: 19:55 sereno Sereno 22 21 94 1019 10 N 0
Ieri h: 19:35 sereno Sereno 22 21 94 1019 10 N 0
Ieri h: 19:15 sereno Sereno 23 21 88 1019 10 N 0
Ieri h: 18:55 sereno Sereno 24 21 83 1019 10 N 5.5
Ieri h: 18:35 molto_nuvoloso Molto Nuvoloso 25 22 83 1019 10 SE 9.3
Ieri h: 18:15 coperto Coperto 24 22 88 1019 10 E/SE 7.4
Ieri h: 17:55 coperto Coperto 23 22 94 1018 10 E 7.4
Ieri h: 17:35 coperto_pioggia Pioggia 23 21 88 1019 10 N 0